MicroStrategy Gross Margin 2010-2024 | MSTR

Current and historical gross margin for MicroStrategy (MSTR) over the last 10 years. The current gross profit margin for MicroStrategy as of March 31, 2024 is %.
MicroStrategy Gross Margin Historical Data
Date TTM Revenue TTM Gross Profit Gross Margin
2024-03-31 $0.49B $0.38B 77.25%
2023-12-31 $0.50B $0.39B 77.98%
2023-09-30 $0.50B $0.40B 78.57%
2023-06-30 $0.50B $0.39B 78.60%
2023-03-31 $0.50B $0.40B 79.08%
2022-12-31 $0.50B $0.40B 79.56%
2022-09-30 $0.50B $0.40B 80.24%
2022-06-30 $0.50B $0.41B 80.95%
2022-03-31 $0.51B $0.41B 81.46%
2021-12-31 $0.51B $0.42B 82.00%
2021-09-30 $0.51B $0.42B 82.64%
2021-06-30 $0.51B $0.42B 82.81%
2021-03-31 $0.49B $0.40B 82.11%
2020-12-31 $0.48B $0.39B 81.46%
2020-09-30 $0.48B $0.39B 80.54%
2020-06-30 $0.48B $0.38B 79.62%
2020-03-31 $0.48B $0.38B 79.50%
2019-12-31 $0.49B $0.39B 79.26%
2019-09-30 $0.49B $0.38B 78.97%
2019-06-30 $0.49B $0.39B 79.26%
2019-03-31 $0.49B $0.39B 79.59%
2018-12-31 $0.50B $0.40B 80.12%
2018-09-30 $0.50B $0.41B 80.68%
2018-06-30 $0.51B $0.41B 80.63%
2018-03-31 $0.50B $0.41B 80.75%
2017-12-31 $0.50B $0.41B 81.11%
2017-09-30 $0.51B $0.41B 81.34%
2017-06-30 $0.51B $0.42B 81.68%
2017-03-31 $0.52B $0.42B 81.82%
2016-12-31 $0.51B $0.42B 81.71%
2016-09-30 $0.52B $0.42B 81.78%
2016-06-30 $0.52B $0.42B 81.40%
2016-03-31 $0.53B $0.43B 81.37%
2015-12-31 $0.53B $0.43B 80.79%
2015-09-30 $0.54B $0.43B 79.48%
2015-06-30 $0.56B $0.44B 78.46%
2015-03-31 $0.57B $0.44B 77.03%
2014-12-31 $0.58B $0.44B 76.55%
2014-09-30 $0.60B $0.46B 77.05%
2014-06-30 $0.59B $0.45B 77.04%
2014-03-31 $0.58B $0.45B 76.71%
2013-12-31 $0.58B $0.44B 75.87%
2013-09-30 $0.57B $0.42B 74.91%
2013-06-30 $0.56B $0.42B 74.29%
2013-03-31 $0.56B $0.42B 74.69%
2012-12-31 $0.57B $0.43B 75.22%
2012-09-30 $0.54B $0.41B 76.10%
2012-06-30 $0.55B $0.42B 76.00%
2012-03-31 $0.55B $0.42B 76.13%
2011-12-31 $0.54B $0.41B 75.79%
2011-09-30 $0.54B $0.40B 74.68%
2011-06-30 $0.51B $0.39B 75.10%
2011-03-31 $0.48B $0.37B 75.41%
2010-12-31 $0.46B $0.35B 76.48%
2010-09-30 $0.42B $0.33B 77.73%
2010-06-30 $0.41B $0.33B 79.81%
2010-03-31 $0.39B $0.32B 81.07%
2009-12-31 $0.38B $0.31B 82.28%
Sector Industry Market Cap Revenue
Computer and Technology Computer Software $27.585B $0.496B
MicroStrategy Incorporated, a leading worldwide provider of business intelligence software, today announced that GT Nexus has selected MicroStrategy to power the customer-facing analytics and reporting capabilities on its Global Logistics portal. The GT Nexus portal is an on demand technology platform that is used by importers, exporters, transportation carriers, suppliers, banks, and other partners to manage goods that are moving around the world. The GT Nexus system captures and stores hard-to-get data associated with global supply chains, and then fuels a range of Web applications that can be used by constituents to lower supply chain costs and improve control. MicroStrategy will help GT Nexus to deliver a wide range of analytics and reporting capabilities to its customers, which include Home Depot, Kmart, Xerox, Weyerhaeuser, and American Eagle Outfitters.
Stock Name Country Market Cap PE Ratio
Microsoft (MSFT) United States $3272.965B 38.13
Oracle (ORCL) United States $380.391B 30.88
Adobe (ADBE) United States $246.907B 39.95
Salesforce (CRM) United States $239.682B 35.69
Intuit (INTU) United States $178.203B 55.53
Synopsys (SNPS) United States $85.859B 59.17
Cadence Design Systems (CDNS) United States $75.687B 71.98
Autodesk (ADSK) United States $52.328B 47.70
Dassault Systemes SA (DASTY) France $49.469B 32.14
ANSYS (ANSS) United States $27.558B 51.00
PTC (PTC) United States $21.077B 55.90
SS&C Technologies Holdings (SSNC) United States $16.724B 15.84
Manhattan Associates (MANH) United States $13.487B 71.58
Descartes Systems Group (DSGX) Canada $8.417B 70.41
Open Text (OTEX) Canada $8.261B 8.48
Trend Micro (TMICY) Japan $6.332B 45.86
CommVault Systems (CVLT) United States $5.304B 85.94
Pegasystems (PEGA) United States $5.069B 44.83
ACI Worldwide (ACIW) United States $4.408B 21.12
Blackbaud (BLKB) United States $3.975B 34.22
Progress Software (PRGS) United States $2.414B 15.50
Sapiens (SPNS) Israel $2.149B 29.31
Verint Systems (VRNT) United States $2.055B 19.25
BlackBerry (BB) Canada $1.423B 0.00
PROS Holdings (PRO) United States $1.115B 0.00
Simulations Plus (SLP) United States $0.828B 61.73
Rand Worldwide (RWWI) United States $0.663B 0.00
Magic Software Enterprises (MGIC) Israel $0.552B 11.72
Canaan (CAN) China $0.331B 0.00
American Software (AMSWA) United States $0.323B 27.77
Rigetti Computing (RGTI) United States $0.187B 0.00
OptimizeRx (OPRX) United States $0.186B 0.00
Neonode (NEON) Sweden $0.049B 0.00
Icad Inc (ICAD) United States $0.036B 0.00
NetSol Technologies (NTWK) United States $0.032B 0.00
Wetouch Technology (WETH) $0.028B 0.00
Smith Micro Software (SMSI) United States $0.022B 0.00
Hanryu Holdings (HRYU) South Korea $0.015B 0.00
GSE Systems (GVP) United States $0.011B 0.00
SAP SE (SAP) Germany $0.000B 50.44